Jackpot

Texas Poker Multi Jackpot System

Kini Telah hadir Jackpot SUPER ROYAL FLUSH

Kini Telah hadir Jackpot 2000 (khusus table VIP keatas).

Ikutilah global jackpot yang tersedia di system kami, dengan system jackpot terbaru dan pertama di indonesia, anda dapat membeli jackpot dengan harga 100 rupiah saja dan menangkan hadiahnya hingga puluhan juta rupiah.

Jackpot bukanlah suatu keharusan untuk dibeli, namun kami memberikan suatu fitur tambahan untuk member tercinta dari www.pkstars88.com.

Terdapat tiga pilihan harga jackpot yang bisa anda beli yaitu :100,500,1000 dan 2000(khusus table VIP Keatas) rupiah.

Hadiah dari Multi jackpot system www.pkstars88.com

  1. full house x 10 harga jackpot yang anda beli.
      (contoh:anda membeli 1000 maka:1000 X10 = 10.000)
  2. four of kind x 250 harga jackpot yang anda beli
      (contoh:anda membeli 1000 maka:1000 X250 = 250.000)
  3. Straight flush x 1200
      (contoh:anda membeli 1000 maka:1000 X1200 = 1.200.000)
  4. Royal flush x 10000 harga jackpot yang anda beli
      (contoh:anda membeli 1000 maka:1000 X10000 = 10.000.000)
  5. SUPER ROYAL FLUSH x 30000 harga jackpot yang anda beli
      (contoh:anda membeli 1000 maka:1000 X30000 = 30.000.000)

Kondisi kartu

  1. full house adalah kondisi kartu dimana kartu anda dan kartu tengah dengan total 7 kartu bisa mendapatkan nilai 5 kartu dengan kombinasi 1 tris(three of kind) dan 1 pair, contoh 3 kartu 10 dan 2 kartu 5
  2. Four of kind adalah kondisi kartu dimana kartu anda dan kartu tengah dengan total 7 kartu bisa mendapatkan nilai 5 kartu dengan kombinasi 4 kartu yang sama jumlah dan 1 kartu apapun juga contoh anda mendapatkan 4 buah kartu angka 3 dan 1 kartu apapun.
  3. Staright flush adalah kondisi kartu dimana kartu anda dan kartu tengah dengan total 7 kartu bisa mendapatkan nilai 5 kartu dengan kombinasi seri / staright dengan kembang yang sama contoh : urutan kartu dari angka 5, 6, 7, 8 , 9 10 dengan kembang yg sama misalnya as hati
  4. Royal flush adalah kondisi kartu dimana kartu anda dan kartu tengah dengan total 7 kartu bisa mendapatkan nilai 5 kartu dengan kombinasi seri / staright dengan kembang yang sama tetapi kartu tersebut haruslah dimulai dari 10. contoh 10, Queen, Jack, King dan aces dengan kembang yang sama
  5. Super Royal flush adalah kondisi kartu dimana Kedua kartu anda digabung dengan 3 kartu pertama meja haruslah royal flush. contoh kartu anda 10,Queen kembang sama dan 3 kartu pertama meja adalah Jack, King dan aces dengan kembang yang sama

Demikian adalah penjelasan dari Multi Jackpot www.pkstars88.com terima kasih dan selamat bermain salam hoki dari kami

Texas Poker Jackpot Winner

TOP SUPER ROYAL FLUSH
No.TanggalNamaPriceWin
120/08 20:17FASTER99Super Royal flush1,500,000
220/08 14:28D97DD329Super Royal flush3,000,000
320/08 12:05HANDAN21Super Royal flush15,000,000
420/08 08:15KAWUL696Super Royal flush6,000,000
520/08 03:13MFF15Super Royal flush3,000,000
TOP ROYAL FLUSH
No.TanggalNamaPriceWin
120/08 21:17KKI999Royal flush1,000,000
220/08 21:04MUKLIS76Royal flush5,000,000
320/08 20:39B47KSES87669Royal flush2,000,000
420/08 20:22NIENA999Royal flush2,000,000
520/08 20:09AMAT2018Royal flush5,000,000
TOP STRAIGHT FLUSH
No.TanggalNamaPriceWin
120/08 21:23OMDUStraight Flush600,000
220/08 21:22W82PCZ16UPStraight Flush600,000
320/08 21:21MANGKUBOYStraight Flush600,000
420/08 21:17EBGQRHEFC7Straight Flush120,000
520/08 21:17ALEXG1G1Straight Flush240,000
LATEST JACKPOT
No.TanggalNamaPriceWin
120/08 21:24PT4DIND4H35008Full House10,000
220/08 21:24JAICOFull House1,000
320/08 21:24TAEKEMASFull House20,000
420/08 21:24LOMEN999Full House1,000
520/08 21:24MASBERTO76Full House1,000
620/08 21:24PAYABILA88Full House2,000
720/08 21:24OCIT_77Full House2,000
820/08 21:24BRENKBAE11Full House2,000
920/08 21:24DRMARQQFull House2,000
1020/08 21:24MADUMDFull House5,000
1120/08 21:24WIJAYA_22Full House1,000
1220/08 21:24KARNO99Full House20,000
1320/08 21:24SIDARATFull House10,000
1420/08 21:24KEVINN234Full House10,000
1520/08 21:24FIRSTENFull House10,000
1620/08 21:24BOSKU456Full House10,000
1720/08 21:24FEDRIANSYAFull House2,000
1820/08 21:24SASANG02Full House5,000
1920/08 21:24YEYEPANG16Full House2,000
2020/08 21:24DEWANUUUFull House1,000
2120/08 21:24S1DNEY999Full House2,000
2220/08 21:24UBSEK88Four Of A Kind25,000
2320/08 21:24K9MRGXQ1LYFour Of A Kind250,000
2420/08 21:24GOZOH123Full House5,000
2520/08 21:24DWBTCRAS18Full House5,000
2620/08 21:24CIPSGEPSUFull House2,000
2720/08 21:24C6B193BFFull House1,000
2820/08 21:24A5309CFEFull House5,000
2920/08 21:24EBC8577EFull House5,000
3020/08 21:24TEL4GA18Full House2,000
3120/08 21:24BALIKERJOFull House1,000
3220/08 21:24CMD121876Four Of A Kind250,000
3320/08 21:24HARUMANI01Full House1,000
3420/08 21:24BK1274BFull House500
3520/08 21:24REVOLUSIFull House2,000
3620/08 21:24EGGOY88Four Of A Kind50,000
3720/08 21:24CKMFBUYDTEFour Of A Kind50,000
3820/08 21:24KAWAKAHFull House5,000
3920/08 21:24BABAYYFull House1,000
4020/08 21:24DUDUY66Full House2,000
4120/08 21:24MAHO13Full House5,000
4220/08 21:24MILIK6666Full House1,000
4320/08 21:24DEFRI121Four Of A Kind25,000
4420/08 21:24JAZZ2929Full House1,000
4520/08 21:24CHANDE88Full House10,000
4620/08 21:24GYNNIFull House2,000
4720/08 21:24T4DTEKONG04Full House5,000
4820/08 21:24KKTGUDIN999Full House2,000
4920/08 21:24CIMOL98Full House10,000
5020/08 21:24LUSI2425Full House10,000

Domino Multi Jackpot System

Ikutilah global jackpot yang tersedia di system kami, dengan system jackpot terbaru dan pertama di indonesia, anda dapat membeli jackpot dengan harga 100 rupiah saja dan menangkan hadiahnya hingga puluhan juta rupiah.

Jackpot bukanlah suatu keharusan untuk dibeli, namun kami memberikan suatu fitur tambahan untuk member tercinta dari www.pkstars88.com.

Terdapat tiga pilihan harga jackpot yang bisa anda beli yaitu :100,500 dan 1000 rupiah.

Hadiah dari Multi jackpot system www.pkstars88.com

  1. Murni Kecil x 50 harga jackpot yang anda beli.
      (contoh:anda membeli 1000 maka:1000 X 50 = 50.000)
  2. Murni Besar x 50 harga jackpot yang anda beli
      (contoh:anda membeli 1000 maka:1000 X 50 = 50.000)
  3. BALAK x 100 harga jackpot yang anda beli
      (contoh:anda membeli 1000 maka:1000 X 100 = 100.000)
  4. ENAM DEWA x 6666 harga jackpot yang anda beli
      (contoh:anda membeli 1000 maka:1000 X 6666 = 6.666.000)

Demikian adalah penjelasan dari Multi Jackpot www.pkstars88.com terima kasih dan selamat bermain salam hoki dari kami

Domino Jackpot Winner

TOP ENAM DEWA
No.TanggalNamaPriceWin
120/08 20:49AZMI97murni enam6,666,000
220/08 20:36DELAHOYAHmurni enam666,600
320/08 18:44RAVINUS23murni enam666,600
420/08 18:44CBD5FB36murni enam3,333,000
520/08 17:56SIMAT76murni enam666,600
TOP BALAK
No.TanggalNamaPriceWin
120/08 21:23ROBI857balak100,000
220/08 21:22AMRAWbalak10,000
320/08 21:20DHFDHGOEW4balak50,000
420/08 21:19NAIYA007balak100,000
520/08 21:15RZ46balak100,000
LATEST JACKPOT
No.TanggalNamaPriceWin
120/08 21:24JI3NK94murni kecil50,000
220/08 21:24TYOKUN66murni kecil50,000
320/08 21:24MASTHEKANmurni besar25,000
420/08 21:24SUPER_77murni besar5,000
520/08 21:23ROBI857balak100,000
620/08 21:23ONGBAK09murni besar5,000
720/08 21:22AMRAWbalak10,000
820/08 21:21JEKLIN77murni besar50,000
920/08 21:21BOLD96murni besar50,000
1020/08 21:20RAMSSEY16murni kecil25,000
1120/08 21:20DHFDHGOEW4balak50,000
1220/08 21:20JEKP0T789murni besar25,000
1320/08 21:20TOMATARRUmurni kecil25,000
1420/08 21:20LR6517JC16murni besar5,000
1520/08 21:20DN4DMOREZO45murni besar25,000
1620/08 21:19ZIA808murni kecil50,000
1720/08 21:19NAIYA007balak100,000
1820/08 21:19YONO11111murni besar25,000
1920/08 21:18ALLU0186murni besar50,000
2020/08 21:17BATTEWmurni besar50,000
2120/08 21:17NYAIK10murni kecil50,000
2220/08 21:15TEMPE_007murni kecil25,000
2320/08 21:15C78AQUARIUS265murni kecil5,000
2420/08 21:15LESBI77murni besar50,000
2520/08 21:15RZ46balak100,000
2620/08 21:14CUKEPmurni kecil25,000
2720/08 21:14JI3NK94murni kecil50,000
2820/08 21:14FEB5D42Abalak100,000
2920/08 21:14AZCA82murni kecil50,000
3020/08 21:14ELASTA96lucky9910,000
3120/08 21:13DEGIROL99balak100,000
3220/08 21:13PAJAK1155murni besar50,000
3320/08 21:13ARENG007murni kecil50,000
3420/08 21:13LOEKMAN91murni kecil50,000
3520/08 21:13212QQZUmurni kecil50,000
3620/08 21:13POKES9999murni besar5,000
3720/08 21:13GOGOK08murni kecil25,000
3820/08 21:12BUNGT03Llucky992,500
3920/08 21:11GRIYABNImurni besar50,000
4020/08 21:11MBAHE90murni kecil5,000
4120/08 21:10DN4DMOREZO45murni besar25,000
4220/08 21:10SUNIA05balak100,000
4320/08 21:10JUL5532murni besar5,000
4420/08 21:10JUPEMXmurni besar5,000
4520/08 21:10DHANZJP698murni besar50,000
4620/08 21:10NYADUK99murni besar25,000
4720/08 21:10IV4ND312lucky99200,000
4820/08 21:09RANORAKASmurni kecil25,000
4920/08 21:09BECUMZlucky9925,000
5020/08 21:09AZIFRIYANTbalak10,000

Ceme Multi Jackpot System

Jackpot dilihat dari gabungan kartu pemain dengan kartu bandar. Bandar harus membeli jackpot sebanyak jumlah player yang sedang duduk. Sebagai contoh bila terdapat 3 pemain duduk bermain, dan bandar memutuskan untuk membeli jackpot Rp 1.000, maka pada periode tersebut bandar akan membeli jackpot sebanyak 3xRp1.000 = Rp3.000.

Jackpot bukanlah suatu keharusan untuk dibeli, namun kami memberikan suatu fitur tambahan untuk member tercinta dari www.pkstars88.com.

Terdapat tiga pilihan harga jackpot yang bisa anda beli yaitu :100,500 dan 1000 rupiah.

Hadiah dari Multi jackpot system www.pkstars88.com

  1. Murni Kecil x 50 harga jackpot yang anda beli.
      (contoh:anda membeli 1000 maka:1000 X 50 = 50.000)
  2. Murni Besar x 50 harga jackpot yang anda beli
      (contoh:anda membeli 1000 maka:1000 X 50 = 50.000)
  3. BALAK x 200 harga jackpot yang anda beli
      (contoh:anda membeli 1000 maka:1000 X 200 = 200.000)
  4. ENAM DEWA x 6666 harga jackpot yang anda beli
      (contoh:anda membeli 1000 maka:1000 X 6666 = 6.666.000)

Demikian adalah penjelasan dari Multi Jackpot www.pkstars88.com terima kasih dan selamat bermain salam hoki dari kami

Ceme Jackpot Winner

TOP ENAM DEWA
No.TanggalNamaPriceWin
120/08 21:21JON_IS_JONmurni enam666,600
220/08 21:16JELITAAAAmurni enam6,666,000
320/08 20:49NAM_BENGmurni enam6,666,000
420/08 20:39DINO1509murni enam6,666,000
520/08 20:09T1MBUL87murni enam6,666,000
TOP BALAK
No.TanggalNamaPriceWin
120/08 21:24NAYFEYbalak100,000
220/08 21:24N05URbalak100,000
320/08 21:24NANDOL21balak200,000
420/08 21:24BANGUNbalak200,000
520/08 21:24GEMBROTTObalak100,000
LATEST JACKPOT
No.TanggalNamaPriceWin
120/08 21:24NAYFEYbalak100,000
220/08 21:24N05URbalak100,000
320/08 21:24NANDOL21balak200,000
420/08 21:24PALTOK01murni kecil50,000
520/08 21:24BANGUNbalak200,000
620/08 21:24GEMBROTTObalak100,000
720/08 21:24IONZ5ZGZ0Zmurni kecil50,000
820/08 21:24GALAK34murni kecil50,000
920/08 21:24UJUDANAmurni besar50,000
1020/08 21:24SIJALU99murni besar5,000
1120/08 21:24UJUDANAmurni besar50,000
1220/08 21:24SEMERBAKmurni besar50,000
1320/08 21:24UJUDANAbalak200,000
1420/08 21:24POTLOT77balak20,000
1520/08 21:23UCEN7676murni kecil50,000
1620/08 21:23WIMA001murni kecil50,000
1720/08 21:23IKANKOIIImurni kecil50,000
1820/08 21:23LEGEND01murni kecil25,000
1920/08 21:23QJXD7JE2TFmurni kecil50,000
2020/08 21:23EEP899murni kecil50,000
2120/08 21:23WASEMARmurni kecil5,000
2220/08 21:23GARENG9murni kecil25,000
2320/08 21:23BATAKTOLbalak200,000
2420/08 21:23PROV1987murni kecil50,000
2520/08 21:23NGUMAImurni kecil50,000
2620/08 21:23SPX383balak100,000
2720/08 21:23ANTONIUS24murni kecil50,000
2820/08 21:23MENELDANIEmurni besar5,000
2920/08 21:23NAYFEYmurni kecil25,000
3020/08 21:22STEVANY59murni besar5,000
3120/08 21:22BONCIS99murni besar50,000
3220/08 21:22APACE66murni besar5,000
3320/08 21:22PELIMmurni kecil50,000
3420/08 21:22PENJOL99murni besar50,000
3520/08 21:22ONEREST11murni besar5,000
3620/08 21:22B61POKEMON222murni kecil5,000
3720/08 21:21PROV1987murni kecil50,000
3820/08 21:21SKYVISIONmurni kecil50,000
3920/08 21:21AQN2MR4HGImurni kecil25,000
4020/08 21:21SKYVISIONmurni kecil50,000
4120/08 21:21KELENG16murni kecil25,000
4220/08 21:21EDI99099_murni kecil50,000
4320/08 21:21ROAD69murni kecil50,000
4420/08 21:21NADAYmurni kecil50,000
4520/08 21:21GOEFANI123balak200,000
4620/08 21:21PANDUGA99murni kecil50,000
4720/08 21:21JON_IS_JONmurni enam666,600
4820/08 21:2154R4Pmurni kecil50,000
4920/08 21:21A27AHYU27766murni kecil5,000
5020/08 21:21BIGBOZ99balak200,000